This demonstration page uses our WeatherBlox Daily Observations layout. Learn more.

Left ArrowRight Arrow

38.20091, -84.87328

Hourly Observations for January 10, 2015

Temp ( °F °C ) Dew Point ( °F °C ) Humidity (%) Winds ( mph kmh ) Pressure ( in mb ) Visibility ( mi km ) Precip ( " mm )
12:53 am 00:53 Clear 10 -12.2 -2 -18.9 58 58 W 6 9 30.56 1035 10 16 0.00 0.00
1:53 am 01:53 Clear 8 -13.3 -1 -18.3 66 66 W 3 6 30.58 1036 10 16 0.00 0.00
2:53 am 02:53 Clear 7 -13.9 -1 -18.3 70 70 W 3 6 30.59 1036 10 16 0.00 0.00
3:53 am 03:53 Clear 6 -14.4 -1 -18.3 73 73 Calm 30.60 1036 10 16 0.00 0.00
4:53 am 04:53 Clear 3 -16.1 -1 -18.3 83 83 Calm 30.59 1036 10 16 0.00 0.00
5:53 am 05:53 Clear 3 -16.1 -3 -19.4 76 76 Calm 30.60 1036 10 16 0.00 0.00
6:53 am 06:53 Clear 2 -16.7 -3 -19.4 80 80 WSW 3 6 30.59 1036 10 16 0.00 0.00
7:53 am 07:53 Clear 1 -17.2 -4 -20 79 79 Calm 30.61 1037 10 16 0.00 0.00
8:53 am 08:53 Sunny 6 -14.4 1 -17.2 79 79 Calm 30.61 1037 10 16 0.00 0.00
9:53 am 09:53 Sunny 10 -12.2 0 -17.8 63 63 SSE 3 6 30.64 1038 10 16 0.00 0.00
10:53 am 10:53 Sunny 13 -10.6 0 -17.8 56 56 SSW 7 11 30.64 1038 10 16 0.00 0.00
11:53 am 11:53 Sunny 17 -8.3 1 -17.2 49 49 S 6 9 30.62 1037 10 16 0.00 0.00
12:53 pm 12:53 Sunny 20 -6.7 1 -17.2 43 43 VRB 6 9 30.58 1036 10 16 0.00 0.00
1:53 pm 13:53 Sunny 24 -4.4 0 -17.8 35 35 WSW 6 9 30.55 1035 10 16 0.00 0.00
2:53 pm 14:53 Sunny 25 -3.9 -2 -18.9 30 30 Calm 30.51 1033 10 16 0.00 0.00
3:53 pm 15:53 Sunny 27 -2.8 -1 -18.3 29 29 VRB 5 7 30.49 1032 10 16 0.00 0.00
4:53 pm 16:53 Sunny 27 -2.8 -2 -18.9 28 28 SSW 5 7 30.51 1033 10 16 0.00 0.00
5:53 pm 17:53 Clear 25 -3.9 -1 -18.3 32 32 SSE 3 6 30.51 1033 10 16 0.00 0.00
6:53 pm 18:53 Clear 20 -6.7 2 -16.7 45 45 Calm 30.53 1034 10 16 0.00 0.00
7:53 pm 19:53 Clear 16 -8.9 3 -16.1 56 56 WSW 3 6 30.53 1034 10 16 0.00 0.00
8:53 pm 20:53 Clear 17 -8.3 3 -16.1 54 54 ESE 3 6 30.51 1033 10 16 0.00 0.00
9:53 pm 21:53 Clear 14 -10 4 -15.6 64 64 Calm 30.50 1033 10 16 0.00 0.00
10:53 pm 22:53 Clear 13 -10.6 4 -15.6 67 67 Calm 30.50 1033 10 16 0.00 0.00
11:53 pm 23:53 Clear 12 -11.1 4 -15.6 70 70 Calm 30.49 1033 10 16 0.00 0.00

Powered by AerisWeather